TITAN 3C TRANSTAGE DEB, 1915

Orbit data source: Space-Track

TITAN 3C TRANSTAGE DEB, 1915 is space debris in LEO originally from a launch on Fri, 15 Oct 1965 UTC launched from the Air Force Eastern Test Range (AFETR). Debris objects in space refer to the collection of defunct objects orbiting the Earth. Examples of debris include non-operational satellites, rocket bodies, and fragments generated from explosions, collisions, or faulty payload assembly.

Loading next visibility...
TITAN 3C TRANSTAGE DEB details
Identifier
1915, 1965-082FZ
Orbit
LEO
Last TLE update21 hours ago
Origin
Flag of USUSAF SSD (US)
ManufacturerUnknown
MissionSpacecraft
Bus & MotorUnknown
MassUnknown
Launch date (UTC)
1965-10-15 (59 years ago)
Launch vehicleUnknown
Launch site
Air Force Eastern Test Range (AFETR)
Object type
Payload
Rocket body
Debris
Shape & HBRUnknown
Radar Cross SectionSmall (<0.1 m²)

Expand to show TLE details & history

TLE from 21 hours ago
0 TITAN 3C TRANSTAGE DEB
1 01915U 65082FZ  24355.86646376  .00001081  00000-0  22286-3 0  9995
2 01915  31.8765 253.1138 0028832  49.2162 311.0973 14.57698084136060
Epoch: 2024-12-20T20:47Z
Definitive object data (Epoch: 2024-12-20T20:47:42.468Z)
Latitude-0.00003°
Longitude-148.73902°
Altitude685.865 km
Speed7.523 km/s
True Right ascension16h 52m 27s
True Declination0° 00' 00"
Sunlit
Object was in daylight at TLE epoch
Visualization TLE readout
Latitude2.19037°
Longitude22.72013°
Altitude708.788 km
Speed7.499 km/s
Apparent Right ascension04h 19m 41s
Apparent Declination-17° 36' 20"
Sunlit
Object is in full shadow
Visualization observer readout
Local Sidereal Time16:21:41
Azimuth1.264° NNE
Elevation-67.685°
Doppler factor1
Orbital elements
Apogee altitude724.661 km
Perigee altitude683.821 km
Semi-major axis7,082.378 km
Eccentricity0.0028832
Inclination31.8765°
RAAN253.1138°
Arg. of periapsis49.2162°
True anomaly310.84773°
Mean anomaly311.0973°
Eccentric anomaly310.97257°
Mean motion3.64145 °/min
BSTAR0.00022286
Orbital period98.86 mins
Loading maneuver chart data...

TITAN 3C TRANSTAGE DEB Visibility forecast

Observer location: undefined°, undefined

Span
Click to sort rows by Start time (UTC) header in descending order
Start Az.
Max El. time (UTC)
Max El. Az.
Max El.
End time (UTC)
End Az.
6 mins2024-12-21 21:44:05.806Z204.328° SW2024-12-21 21:46:05.806Z171.483° S22.564°2024-12-21 21:50:05.806Z114.056° SE
6 mins2024-12-21 23:28:05.806Z227.388° WSW2024-12-21 23:30:05.806Z191.08° SSW27.578°2024-12-21 23:34:05.806Z123.695° SE
6 mins2024-12-22 01:12:05.806Z234.897° WSW2024-12-22 01:15:05.806Z187.184° SSW20.986°2024-12-22 01:18:05.806Z147.496° SSE
|